Location: Pine Creek
(45.5072°N, 110.5649°W)
Time: 16:24:22
(UTC+00:00)

Envisat - Pass Details

Date: 27 January 2022
Orbit: 764 x 765 km, 98.2° (Epoch: 19 May)

Event Time Altitude Azimuth Distance (km) Brightness Sun altitude
Rises 12:00:32 0° 17° (NNE) 3,241 6.5 -29.4°
Reaches altitude 10° 12:02:54 10° 21° (NNE) 2,311 5.7 -29.0°
Maximum altitude 12:07:55 58° 101° (E) 892 3.5 -28.1°
Drops below altitude 10° 12:12:54 10° 180° (S) 2,295 5.4 -27.3°
Sets 12:15:14 0° 184° (S) 3,217 6.2 -26.9°
